Погода в Сусанине

Россия / Хабаровский край     52°47′38″N   140°04′25″E
темп.,
°C
ветер,
м/с
пор.,
м/с
влажн.,
%
обл.,
%
осадки,
мм/ч
давл.,
гПа
погр.,
м
10 апреля, сб
сб1001:00−6юв11955 0.0 102110
04:00−7юв11955 0.0 102110
07:00−6юв11915 0.0 102124
10:00+1ююв12685 0.0 1020293
13:00+4ююз13846 0.0 1020327
16:00+6ю34775 0.0 1019258
19:00+1юв348345 0.0 101841
22:00−2юв339096 0.0 101938
11 апреля, вс
вс1101:00−2юв349189 0.0 101744
04:00−3юв34904 0.0 101648
07:00−2юв358495 0.0 101488
10:00+4ююв3772100 0.0 1012252
13:00+7ю3674100 0.1 1012277
16:00+9з586489 0.5 1012621
19:00+5сз3673100 0.8 101493
22:00+1сз2281100 0.8 101618
12 апреля, пн
пн1201:00−1зсз1184100 0.0 101810
04:00−1сз2476100 0.0 101874
07:00−3ссз3457100 0.0 1019410
10:00−2сз4553100 0.0 1019912
13:00−2сз5546100 0.0 10191168
16:00−1ссз5638100 0.0 10181426
19:00−3с4544100 0.0 10181100
22:00−3с3442100 0.0 1018811
13 апреля, вт
вт1301:00−4ссв2445100 0.1 1017879
04:00−4св3455100 0.3 1015918
07:00−6всв4672100 0.3 1013802
10:00−5св3684100 1.3 1013705
13:00−4св5681100 0.9 1011897
16:00−3св5671100 1.3 1010983
19:00−4св4786100 0.4 1010729
22:00−6ссв4777100 0.6 1010512
14 апреля, ср
ср1401:00−6с3576100 0.0 1009560
04:00−7ссз4688100 0.3 1008552
07:00−7ссз5880100 0.3 1008761
10:00−6ссз5672100 0.4 10081121
13:00−4ссз5666100 0.3 10081344
16:00−4сз5673100 0.7 10081123
19:00−5с3477100 1.0 1010682
22:00−6зюз127996 1.3 1012316